Regional & State Weather Roundups


733 
ASUS44 KFWD 161415
RWRFWD
NORTH TEXAS HOURLY WEATHER ROUNDUP
NATIONAL WEATHER SERVICE FORT WORTH TX
900 AM CDT MON JUL 16 2018
NOTE: "FAIR" INDICATES FEW OR NO CLOUDS BELOW 12,000 FEET WITH NO
SIGNIFICANT WEATHER AND/OR OBSTRUCTIONS TO VISIBILITY.
TXZ118-119-161500-
DALLAS/FORT WORTH METROPLEX
  
CITY           SKY/WX    TMP DP  RH WIND       PRES   REMARKS
DFW AIRPORT    FAIR      85  71  63 S13       30.02R HX  90           
DALLAS LOVE    FAIR      85  72  65 SW9       30.03R HX  91           
FTW MEACHAM    FAIR      82  72  71 SW10      30.03R                  
DAL-EXECUTIVE  FAIR      85  71  63 S7        30.03R HX  90           
FTW-ALLIANCE   PTSUNNY   85  70  60 S14       30.03R                  
FTW-NAS-JRB    FAIR      85  69  58 S8        30.03R                  
FTW-SPINKS     SUNNY     84  70  61 S9        30.05R HAZE             
ARLINGTON      FAIR      83  73  72 S7        30.04R                  
GRAND PRAIRIE  SUNNY     82  70  65 S7        30.05R                  
ADDISON        SUNNY     84  70  61 SW9       30.04R                  
MESQUITE       SUNNY     81  72  74 S8        30.04R HAZE             
LANCASTER      FAIR      82  71  70 SW7       30.05R                  
$$
TXZ091>094-102>105-117-120-121-131>134-161500-
NORTH CENTRAL TEXAS
  
CITY           SKY/WX    TMP DP  RH WIND       PRES   REMARKS
SHRMAN/DENISON FAIR      85  70  60 S13       30.04R                  
GAINESVILLE    FAIR      84  69  61 S9        30.05R                  
BOWIE          FAIR      81  69  65 S7        30.04R                  
BRIDGEPORT     FAIR      84  68  58 S7        30.05S                  
DECATUR        FAIR      84  69  60 S3        30.04S                  
DENTON         FAIR      86  70  58 SW9       30.03R HX  90           
MCKINNEY       FAIR      85  72  65 S10       30.03R HX  91           
BONHAM         FAIR      83  71  67 S8        30.03S                  
GREENVILLE     FAIR      84  72  65 S6        30.05R                  
ROCKWALL       FAIR      81  72  73 SW9       30.05R                  
TERRELL        FAIR      83  72  69 SW8       30.05R                  
WAXAHACHIE     FAIR      82  73  72 SW10      30.05S HAZE             
CLEBURNE       FAIR      82  72  69 S9        30.06R HAZE             
GRANBURY       FAIR      86  70  59 S8        30.05R HX  90           
$$
TXZ083>090-098>101-113>116-127>130-139>142-154-155-161500-
WESTERN NORTH TEXAS
  
CITY           SKY/WX    TMP DP  RH WIND       PRES   REMARKS
WICHITA FALLS  FAIR      84  66  54 SW13      30.02R                  
WF-KICKAPOO    FAIR      82  68  63 SW6       30.05R                  
VERNON         FAIR      81  69  65 SE3       30.04R                  
ABILENE        FAIR      80  71  74 S10       30.08R                  
ABILENE-DYESS  FAIR      82  67  60 S9        30.07R                  
GRAHAM         FAIR      82  72  71 S3        30.03R                  
BRECKENRIDGE   FAIR      83  70  65 SW6       30.05R                  
CISCO          FAIR      81  72  74 S9        30.08R                  
EASTLAND       FAIR      80  71  74 S8        30.07R                  
RANGER         FAIR      79  71  75 S8        30.07R                  
MINERAL WELLS  FAIR      82  69  64 S7        30.03R                  
STEPHENVILLE   FAIR      81  70  69 SW6       30.09R                  
COMANCHE       FAIR      82  71  68 SW13      30.07R                  
BROWNWOOD      FAIR      82  72  69 S9        30.07S HAZE             
COLEMAN        FAIR      81  69  67 S9        30.08R                  
BRADY          FAIR      79  70  73 S9        30.09R                  
$$
TXZ143>147-156>162-174-175-161500-
CENTRAL TEXAS
  
CITY           SKY/WX    TMP DP  RH WIND       PRES   REMARKS
WACO           FAIR      82  72  71 S10       30.04R                  
WACO-TSTC      SUNNY     82  72  69 MISG      30.05R HAZE             
WACO-MCGREGOR  FAIR      83  72  69 S12G18    30.04S                  
HILLSBORO      FAIR      81  74  78 S8        30.04S                  
CORSICANA      CLOUDY    81  73  76 SW12      30.06R                  
MEXIA          FAIR      80  73  78 SW10G21   30.06R                  
HEARNE         PTSUNNY   80  75  86 S9        30.07R                  
CAMERON        CLOUDY    82  74  78 SW7       30.06R                  
TEMPLE         FAIR      81  73  76 S13       30.06R                  
KILLEEN        FAIR      80  70  71 S12       30.05R                  
KILLEEN-SKYLRK FAIR      81  72  74 S13       30.06R                  
FORT HOOD      FAIR      80  71  71 S14       30.02R                  
GATESVILLE     FAIR      81  70  69 S10       30.07R                  
HAMILTON       FAIR      82  71  69 S13       30.07R                  
LAMPASAS       FAIR      81  70  69 S10       30.06R                  
$$
TXZ095>097-106>112-122>126-135>138-148>153-164>167-161500-
EAST TEXAS
  
CITY           SKY/WX    TMP DP  RH WIND       PRES   REMARKS
PARIS          FAIR      84  73  69 SW13      30.05R HX  90           
SULPHUR SPRNGS FAIR      83  72  69 CALM      30.07R                  
MOUNT PLEASANT FAIR      82  72  71 SW7       30.07R                  
GILMER         FAIR     N/A N/A N/A SW8       30.06R                  
MINEOLA        FAIR      81  73  78 SW7       30.05R                  
TYLER          FAIR      82  74  76 SW8       30.05R                  
LONGVIEW       FAIR      82  75  79 W10       30.06R                  
MARSHALL       FAIR      82  72  70 W7        30.09R                  
ATHENS         FAIR      81  72  74 SW6       30.05R                  
PALESTINE      FAIR      80  74  84 S6        30.08R FOG              
JACKSONVILLE   FAIR      80  73  80 SW8       30.11R                  
HENDERSON      FAIR      80  74  82 SW8       30.08R                  
CENTER         FAIR      80  74  81 SW8       30.08R                  
LUFKIN         FAIR      79  76  90 SW8       30.07R                  
$$
SUPPLEMENTAL OBSERVATIONS (NWS FORT WORTH AREA)
  
CITY           SKY/WX    TMP DP  RH WIND       PRES   REMARKS
DENISON DAM      N/A     84  68  58 SW5         N/A                   
CADDO GRASSLND   N/A     82  72  69 S8          N/A                   
LBJ GRASSLAND    N/A     82  66  57 S6          N/A                   
POSSUM KINGDOM   N/A     84  72  65 S6          N/A                   
GRANBURY         N/A     86  70  58 S8          N/A  HX  90           
COMANCHE         N/A     84  68  58 SW8         N/A                   
MCGREGOR         N/A     82  70  65 S8          N/A                   
TEMPLE           N/A     81  73  78 SW12        N/A                   
LAKE LIMESTONE   N/A     81  75  83 SW12        N/A                   
PALESTINE        N/A     81  73  78 SW2         N/A                   
$$
SUPPLEMENTAL OBSERVATIONS (NWS NORMAN AREA)
  
CITY           SKY/WX    TMP DP  RH WIND       PRES   REMARKS
GOODLETT         N/A     84  64  51 E6        30.04S                  
ODELL            N/A     84  69  61 S5        30.05S                  
CROWELL          N/A     82  66  58 NW3       30.05S                  
KNOX CITY        N/A     82  67  62 SW5       30.05S                  
SEYMOUR          N/A     82  65  55 SW6       30.05R                  
MILLERS CREEK    N/A     82  72  69 SW8         N/A                   
$$
SUPPLEMENTAL OBSERVATIONS (NWS SAN ANGELO AREA)
  
CITY           SKY/WX    TMP DP  RH WIND       PRES   REMARKS
WEINERT          N/A     81  67  63 SW7       30.06R                  
HASKELL          N/A     80  64  58 S10       30.05R                  
THROCKMORTON     N/A     84  69  62 S9        30.05R                  
STAMFORD         N/A     80  70  70 S13       30.06R                  
CLYDE            N/A     80  71  73 S12       30.10R                  
HAMBY            N/A     82  70  65 S8          N/A                   
IVIE RESERVOIR   N/A     82  70  65 S8          N/A                   
COLORADO BEND    N/A     81  70  69 S9          N/A                   
$$
SUPPLEMENTAL OBSERVATIONS (NWS SHREVEPORT AREA)
  
CITY           SKY/WX    TMP DP  RH WIND       PRES   REMARKS
TEXARKANA        N/A     84  73  70 W5          N/A  HX  91           
LINDEN           N/A     84  73  70 SW5         N/A  HX  91           
CADDO LAKE       N/A     86  72  62 SW1G9       N/A  HX  92           
LUFKIN           N/A     81  75  83 MISG        N/A                   
N SABINE NF      N/A     82  75  78 MISG        N/A                   
$$
SUPPLEMENTAL OBSERVATIONS ARE A COLLECTION OF AUTOMATED INSTRUMENTS
THAT ARE MAINTAINED BY A VARIETY OF FEDERAL AND STATE AGENCIES. 
CERTAIN ELEMENTS...SUCH AS HUMIDITY VALUES AND SUSTAINED WIND 
SPEEDS...MAY BE APPROXIMATED.
  

734 
ASUS44 KFWD 161415
RWRTX 
NORTH TEXAS HOURLY WEATHER ROUNDUP
NATIONAL WEATHER SERVICE FORT WORTH TX
900 AM CDT MON JUL 16 2018
NOTE: "FAIR" INDICATES FEW OR NO CLOUDS BELOW 12,000 FEET WITH NO
SIGNIFICANT WEATHER AND/OR OBSTRUCTIONS TO VISIBILITY.
TXZ118-119-161500-
DALLAS/FORT WORTH METROPLEX
  
CITY           SKY/WX    TMP DP  RH WIND       PRES   REMARKS
DFW AIRPORT    FAIR      85  71  63 S13       30.02R HX  90           
DALLAS LOVE    FAIR      85  72  65 SW9       30.03R HX  91           
FTW MEACHAM    FAIR      82  72  71 SW10      30.03R                  
DAL-EXECUTIVE  FAIR      85  71  63 S7        30.03R HX  90           
FTW-ALLIANCE   PTSUNNY   85  70  60 S14       30.03R                  
FTW-NAS-JRB    FAIR      85  69  58 S8        30.03R                  
FTW-SPINKS     SUNNY     84  70  61 S9        30.05R HAZE             
ARLINGTON      FAIR      83  73  72 S7        30.04R                  
GRAND PRAIRIE  SUNNY     82  70  65 S7        30.05R                  
ADDISON        SUNNY     84  70  61 SW9       30.04R                  
MESQUITE       SUNNY     81  72  74 S8        30.04R HAZE             
LANCASTER      FAIR      82  71  70 SW7       30.05R                  
$$
TXZ091>094-102>105-117-120-121-131>134-161500-
NORTH CENTRAL TEXAS
  
CITY           SKY/WX    TMP DP  RH WIND       PRES   REMARKS
SHRMAN/DENISON FAIR      85  70  60 S13       30.04R                  
GAINESVILLE    FAIR      84  69  61 S9        30.05R                  
BOWIE          FAIR      81  69  65 S7        30.04R                  
BRIDGEPORT     FAIR      84  68  58 S7        30.05S                  
DECATUR        FAIR      84  69  60 S3        30.04S                  
DENTON         FAIR      86  70  58 SW9       30.03R HX  90           
MCKINNEY       FAIR      85  72  65 S10       30.03R HX  91           
BONHAM         FAIR      83  71  67 S8        30.03S                  
GREENVILLE     FAIR      84  72  65 S6        30.05R                  
ROCKWALL       FAIR      81  72  73 SW9       30.05R                  
TERRELL        FAIR      83  72  69 SW8       30.05R                  
WAXAHACHIE     FAIR      82  73  72 SW10      30.05S HAZE             
CLEBURNE       FAIR      82  72  69 S9        30.06R HAZE             
GRANBURY       FAIR      86  70  59 S8        30.05R HX  90           
$$
TXZ083>090-098>101-113>116-127>130-139>142-154-155-161500-
WESTERN NORTH TEXAS
  
CITY           SKY/WX    TMP DP  RH WIND       PRES   REMARKS
WICHITA FALLS  FAIR      84  66  54 SW13      30.02R                  
WF-KICKAPOO    FAIR      82  68  63 SW6       30.05R                  
VERNON         FAIR      81  69  65 SE3       30.04R                  
ABILENE        FAIR      80  71  74 S10       30.08R                  
ABILENE-DYESS  FAIR      82  67  60 S9        30.07R                  
GRAHAM         FAIR      82  72  71 S3        30.03R                  
BRECKENRIDGE   FAIR      83  70  65 SW6       30.05R                  
CISCO          FAIR      81  72  74 S9        30.08R                  
EASTLAND       FAIR      80  71  74 S8        30.07R                  
RANGER         FAIR      79  71  75 S8        30.07R                  
MINERAL WELLS  FAIR      82  69  64 S7        30.03R                  
STEPHENVILLE   FAIR      81  70  69 SW6       30.09R                  
COMANCHE       FAIR      82  71  68 SW13      30.07R                  
BROWNWOOD      FAIR      82  72  69 S9        30.07S HAZE             
COLEMAN        FAIR      81  69  67 S9        30.08R                  
BRADY          FAIR      79  70  73 S9        30.09R                  
$$
TXZ143>147-156>162-174-175-161500-
CENTRAL TEXAS
  
CITY           SKY/WX    TMP DP  RH WIND       PRES   REMARKS
WACO           FAIR      82  72  71 S10       30.04R                  
WACO-TSTC      SUNNY     82  72  69 MISG      30.05R HAZE             
WACO-MCGREGOR  FAIR      83  72  69 S12G18    30.04S                  
HILLSBORO      FAIR      81  74  78 S8        30.04S                  
CORSICANA      CLOUDY    81  73  76 SW12      30.06R                  
MEXIA          FAIR      80  73  78 SW10G21   30.06R                  
HEARNE         PTSUNNY   80  75  86 S9        30.07R                  
CAMERON        CLOUDY    82  74  78 SW7       30.06R                  
TEMPLE         FAIR      81  73  76 S13       30.06R                  
KILLEEN        FAIR      80  70  71 S12       30.05R                  
KILLEEN-SKYLRK FAIR      81  72  74 S13       30.06R                  
FORT HOOD      FAIR      80  71  71 S14       30.02R                  
GATESVILLE     FAIR      81  70  69 S10       30.07R                  
HAMILTON       FAIR      82  71  69 S13       30.07R                  
LAMPASAS       FAIR      81  70  69 S10       30.06R                  
$$
TXZ095>097-106>112-122>126-135>138-148>153-164>167-161500-
EAST TEXAS
  
CITY           SKY/WX    TMP DP  RH WIND       PRES   REMARKS
PARIS          FAIR      84  73  69 SW13      30.05R HX  90           
SULPHUR SPRNGS FAIR      83  72  69 CALM      30.07R                  
MOUNT PLEASANT FAIR      82  72  71 SW7       30.07R                  
GILMER         FAIR     N/A N/A N/A SW8       30.06R                  
MINEOLA        FAIR      81  73  78 SW7       30.05R                  
TYLER          FAIR      82  74  76 SW8       30.05R                  
LONGVIEW       FAIR      82  75  79 W10       30.06R                  
MARSHALL       FAIR      82  72  70 W7        30.09R                  
ATHENS         FAIR      81  72  74 SW6       30.05R                  
PALESTINE      FAIR      80  74  84 S6        30.08R FOG              
JACKSONVILLE   FAIR      80  73  80 SW8       30.11R                  
HENDERSON      FAIR      80  74  82 SW8       30.08R                  
CENTER         FAIR      80  74  81 SW8       30.08R                  
LUFKIN         FAIR      79  76  90 SW8       30.07R                  
$$
SUPPLEMENTAL OBSERVATIONS (NWS FORT WORTH AREA)
  
CITY           SKY/WX    TMP DP  RH WIND       PRES   REMARKS
DENISON DAM      N/A     84  68  58 SW5         N/A                   
CADDO GRASSLND   N/A     82  72  69 S8          N/A                   
LBJ GRASSLAND    N/A     82  66  57 S6          N/A                   
POSSUM KINGDOM   N/A     84  72  65 S6          N/A                   
GRANBURY         N/A     86  70  58 S8          N/A  HX  90           
COMANCHE         N/A     84  68  58 SW8         N/A                   
MCGREGOR         N/A     82  70  65 S8          N/A                   
TEMPLE           N/A     81  73  78 SW12        N/A                   
LAKE LIMESTONE   N/A     81  75  83 SW12        N/A                   
PALESTINE        N/A     81  73  78 SW2         N/A                   
$$
SUPPLEMENTAL OBSERVATIONS (NWS NORMAN AREA)
  
CITY           SKY/WX    TMP DP  RH WIND       PRES   REMARKS
GOODLETT         N/A     84  64  51 E6        30.04S                  
ODELL            N/A     84  69  61 S5        30.05S                  
CROWELL          N/A     82  66  58 NW3       30.05S                  
KNOX CITY        N/A     82  67  62 SW5       30.05S                  
SEYMOUR          N/A     82  65  55 SW6       30.05R                  
MILLERS CREEK    N/A     82  72  69 SW8         N/A                   
$$
SUPPLEMENTAL OBSERVATIONS (NWS SAN ANGELO AREA)
  
CITY           SKY/WX    TMP DP  RH WIND       PRES   REMARKS
WEINERT          N/A     81  67  63 SW7       30.06R                  
HASKELL          N/A     80  64  58 S10       30.05R                  
THROCKMORTON     N/A     84  69  62 S9        30.05R                  
STAMFORD         N/A     80  70  70 S13       30.06R                  
CLYDE            N/A     80  71  73 S12       30.10R                  
HAMBY            N/A     82  70  65 S8          N/A                   
IVIE RESERVOIR   N/A     82  70  65 S8          N/A                   
COLORADO BEND    N/A     81  70  69 S9          N/A                   
$$
SUPPLEMENTAL OBSERVATIONS (NWS SHREVEPORT AREA)
  
CITY           SKY/WX    TMP DP  RH WIND       PRES   REMARKS
TEXARKANA        N/A     84  73  70 W5          N/A  HX  91           
LINDEN           N/A     84  73  70 SW5         N/A  HX  91           
CADDO LAKE       N/A     86  72  62 SW1G9       N/A  HX  92           
LUFKIN           N/A     81  75  83 MISG        N/A                   
N SABINE NF      N/A     82  75  78 MISG        N/A                   
$$
SUPPLEMENTAL OBSERVATIONS ARE A COLLECTION OF AUTOMATED INSTRUMENTS
THAT ARE MAINTAINED BY A VARIETY OF FEDERAL AND STATE AGENCIES. 
CERTAIN ELEMENTS...SUCH AS HUMIDITY VALUES AND SUSTAINED WIND 
SPEEDS...MAY BE APPROXIMATED.